Location: Kapla
(46.2483°N, 15.0094°E)
Time: 14:47:31
(UTC+00:00)

CZ-2C R/B - Pass Details

Date: 03 March 2021
Orbit: 783 x 871 km, 98.2° (Epoch: 17 April)

Event Time Altitude Azimuth Distance (km) Brightness Sun altitude
Rises 18:00:15 0° 15° (NNE) 3,433 5.8 -13.1°
Reaches altitude 10° 18:02:41 10° 18° (NNE) 2,481 5.0 -13.5°
Maximum altitude 18:08:11 69° 102° (ESE) 892 2.6 -14.4°
Drops below altitude 10° 18:13:30 10° 186° (S) 2,406 5.1 -15.4°
Sets 18:15:49 0° 188° (S) 3,320 5.8 -15.8°
